Flag for USA Past Weather in Furnace Creek (Death Valley), California, USA — Yesterday and Last 2 Weeks

63 °F


Feels Like: 63 °F
Forecast: 61 / 95 °F
Wind: No wind

Location: Desert Rock Airport

Current Time: Oct 21, 2016 at 9:46:16 AM

Latest Report: Oct 21, 2016 at 8:55 AM

Visibility: 10 mi

Pressure: 30.03 "Hg

Humidity: 15%

Dew Point: 14 °F

Location of Furnace Creek (Death Valley)Location

Past Weather in Furnace Creek (Death Valley) — Graph


Furnace Creek (Death Valley) Temperature Yesterday

Maximum temperature yesterday: 78 °F (at 2:55 PM)
Minimum temperature yesterday: 53 °F (at 5:55 AM)
Average temperature yesterday: 64 °F

High & Low Weather Summary for the Past Weeks

High87 °F (Oct 14, 2:55 PM)59% (Oct 18, 4:55 AM)30.21 "Hg (Oct 18, 4:55 AM)
Low48 °F (Oct 18, 4:55 AM)8% (Oct 7, 1:55 PM)29.56 "Hg (Oct 17, 12:55 AM)
Average68 °F22%29.90 "Hg
* Reported Oct 6 6:55 PM — Oct 21 7:55 AM, Furnace Creek (Death Valley), Weather by CustomWeather, © 2016

Note: Actual official high and low records may vary slightly from our data, if they occured in-between our weather recording intervals... More about our weather records


Furnace Creek (Death Valley) Weather History for the Previous 24 Hours

Scroll right to see more
Time TempWeatherWind HumidityBarometerVisibility
7:55 AM
Fri, Oct 21
55 °FSunny.3 mph20%30.03 "Hg10 mi
6:55 AM49 °FClear.3 mph22%30.03 "Hg10 mi
5:55 AM48 °FClear.5 mph23%30.02 "Hg10 mi
4:55 AM51 °FClear.5 mph22%30.00 "Hg10 mi
3:55 AM53 °FClear.No wind20%29.99 "Hg10 mi
2:55 AM53 °FClear.No wind20%30.00 "Hg10 mi
1:55 AM54 °FClear.3 mph20%30.01 "Hg10 mi
12:55 AM57 °FClear.5 mph19%30.03 "Hg10 mi
11:55 PM
Thu, Oct 20
54 °FClear.No wind19%30.04 "Hg10 mi
10:55 PM56 °FClear.5 mph18%30.05 "Hg10 mi
9:55 PM58 °FClear.5 mph18%30.06 "Hg10 mi
8:55 PM61 °FClear.6 mph14%30.06 "Hg10 mi
7:55 PM65 °FClear.9 mph14%30.05 "Hg10 mi
6:55 PM67 °FClear.9 mph13%30.05 "Hg10 mi
5:55 PM73 °FSunny.8 mph10%30.03 "Hg10 mi
4:55 PM77 °FSunny.12 mph9%30.02 "Hg10 mi
3:55 PM78 °FSunny.13 mph9%30.03 "Hg10 mi
2:55 PM78 °FSunny.14 mph9%30.04 "Hg10 mi
1:55 PM76 °FSunny.13 mph10%30.07 "Hg10 mi
12:55 PM74 °FSunny.17 mph11%30.10 "Hg10 mi
11:55 AM72 °FSunny.17 mph13%30.14 "Hg10 mi
10:55 AM69 °FSunny.15 mph14%30.17 "Hg10 mi
9:55 AM65 °FSunny.12 mph16%30.21 "Hg10 mi
Weather by CustomWeather, © 2016

See weather overviewHow to use our weather pages